Time,TemperatureF,DewpointF,PressureIn,WindDirection,WindDirectionDegrees,WindSpeedMPH,WindSpeedGustMPH,Humidity,HourlyPrecipIn,Conditions,Clouds,dailyrainin,SoftwareType,DateUTC
2013-06-26 00:00:00,72.6,71.1,29.95,WSW,242,0.0,2.0,95,0.00,,---,0.00,VWS V14.01,2013-06-26 04:00:00,
2013-06-26 00:01:00,72.6,71.1,29.95,WSW,242,0.0,0.0,95,0.00,,---,0.00,VWS V14.01,2013-06-26 04:01:00,
2013-06-26 00:06:00,72.5,71.0,29.95,WSW,242,0.0,0.0,95,0.00,,---,0.00,VWS V14.01,2013-06-26 04:06:00,
2013-06-26 00:11:00,72.5,71.0,29.95,WSW,242,0.0,0.0,95,0.00,,---,0.00,VWS V14.01,2013-06-26 04:11:00,
2013-06-26 00:16:00,72.4,70.9,29.94,WSW,242,0.0,0.0,95,0.00,,---,0.00,VWS V14.01,2013-06-26 04:16:00,
2013-06-26 00:21:00,72.3,70.8,29.95,WSW,242,0.0,0.0,95,0.00,,---,0.00,VWS V14.01,2013-06-26 04:21:00,
2013-06-26 00:26:00,72.2,70.7,29.95,WSW,242,0.0,0.0,95,0.00,,---,0.00,VWS V14.01,2013-06-26 04:26:00,
2013-06-26 00:30:00,72.9,71.4,29.96,WSW,242,0.0,1.0,95,0.00,,---,0.00,VWS V14.01,2013-06-26 04:30:00,
2013-06-26 00:31:00,72.2,70.7,29.94,WSW,242,0.0,0.0,95,0.00,,---,0.00,VWS V14.01,2013-06-26 04:31:00,
2013-06-26 00:36:00,72.1,70.6,29.94,WSW,242,0.0,0.0,95,0.00,,---,0.00,VWS V14.01,2013-06-26 04:36:00,
2013-06-26 00:41:00,72.1,70.6,29.94,WSW,242,0.0,0.0,95,0.00,,---,0.00,VWS V14.01,2013-06-26 04:41:00,
2013-06-26 00:46:00,72.0,70.5,29.94,WSW,242,0.0,0.0,95,0.00,,---,0.00,VWS V14.01,2013-06-26 04:46:00,
2013-06-26 00:51:00,71.9,70.4,29.93,WSW,242,0.0,0.0,95,0.00,,---,0.00,VWS V14.01,2013-06-26 04:51:00,
2013-06-26 00:56:00,71.8,70.3,29.93,WSW,242,0.0,0.0,95,0.00,,---,0.00,VWS V14.01,2013-06-26 04:56:00,
2013-06-26 01:00:00,72.6,71.1,29.95,WSW,242,0.0,2.0,95,0.00,,---,0.00,VWS V14.01,2013-06-26 05:00:00,
2013-06-26 01:01:00,71.7,70.2,29.93,WSW,242,0.0,0.0,95,0.00,,---,0.00,VWS V14.01,2013-06-26 05:01:00,
2013-06-26 01:06:00,71.6,70.1,29.93,WSW,242,0.0,0.0,95,0.00,,---,0.00,VWS V14.01,2013-06-26 05:06:00,
2013-06-26 01:11:00,71.6,70.1,29.92,WSW,242,0.0,0.0,95,0.00,,---,0.00,VWS V14.01,2013-06-26 05:11:00,
2013-06-26 01:16:00,71.5,70.0,29.92,WSW,242,0.0,0.0,95,0.00,,---,0.00,VWS V14.01,2013-06-26 05:16:00,
2013-06-26 01:21:00,71.4,69.9,29.92,WSW,242,0.0,0.0,95,0.00,,---,0.00,VWS V14.01,2013-06-26 05:21:00,
2013-06-26 01:26:00,71.3,69.8,29.92,WSW,242,0.0,0.0,95,0.00,,---,0.00,VWS V14.01,2013-06-26 05:26:00,
2013-06-26 01:30:00,72.2,70.7,29.94,WSW,242,0.0,0.0,95,0.00,,---,0.00,VWS V14.01,2013-06-26 05:30:00,
2013-06-26 01:31:00,71.2,69.7,29.92,WSW,242,0.0,0.0,95,0.00,,---,0.00,VWS V14.01,2013-06-26 05:31:00,
2013-06-26 01:36:00,71.1,69.9,29.92,WSW,242,0.0,0.0,96,0.00,,---,0.00,VWS V14.01,2013-06-26 05:36:00,
2013-06-26 01:41:00,71.0,69.8,29.92,WSW,242,0.0,0.0,96,0.00,,---,0.00,VWS V14.01,2013-06-26 05:41:00,
2013-06-26 01:46:00,71.0,69.5,29.92,WSW,242,0.0,0.0,95,0.00,,---,0.00,VWS V14.01,2013-06-26 05:46:00,
2013-06-26 01:51:00,70.9,69.4,29.92,WSW,242,0.0,0.0,95,0.00,,---,0.00,VWS V14.01,2013-06-26 05:51:00,
2013-06-26 01:56:00,70.8,69.3,29.91,WSW,242,0.0,0.0,95,0.00,,---,0.00,VWS V14.01,2013-06-26 05:56:00,
2013-06-26 02:00:00,71.7,70.2,29.93,WSW,242,0.0,0.0,95,0.00,,---,0.00,VWS V14.01,2013-06-26 06:00:00,
2013-06-26 02:01:00,70.8,69.3,29.91,WSW,242,0.0,0.0,95,0.00,,---,0.00,VWS V14.01,2013-06-26 06:01:00,
2013-06-26 02:06:00,70.7,69.2,29.91,WSW,242,0.0,0.0,95,0.00,,---,0.00,VWS V14.01,2013-06-26 06:06:00,
2013-06-26 02:11:00,70.6,69.1,29.91,WSW,242,0.0,0.0,95,0.00,,---,0.00,VWS V14.01,2013-06-26 06:11:00,
2013-06-26 02:16:00,70.5,69.0,29.91,WSW,242,0.0,0.0,95,0.00,,---,0.00,VWS V14.01,2013-06-26 06:16:00,
2013-06-26 02:21:00,70.4,68.9,29.91,WSW,242,0.0,0.0,95,0.00,,---,0.00,VWS V14.01,2013-06-26 06:21:00,
2013-06-26 02:26:00,70.4,68.9,29.91,WSW,242,0.0,0.0,95,0.00,,---,0.00,VWS V14.01,2013-06-26 06:26:00,
2013-06-26 02:30:00,71.2,69.7,29.92,WSW,242,0.0,0.0,95,0.00,,---,0.00,VWS V14.01,2013-06-26 06:30:00,
2013-06-26 02:31:00,70.3,68.8,29.91,WSW,242,0.0,0.0,95,0.00,,---,0.00,VWS V14.01,2013-06-26 06:31:00,
2013-06-26 02:36:00,70.2,69.0,29.91,WSW,242,0.0,0.0,96,0.00,,---,0.00,VWS V14.01,2013-06-26 06:36:00,
2013-06-26 02:41:00,70.3,69.1,29.91,WSW,242,0.0,3.0,96,0.00,,---,0.00,VWS V14.01,2013-06-26 06:41:00,
2013-06-26 02:46:00,70.3,69.4,29.91,WSW,242,0.0,3.0,97,0.00,,---,0.00,VWS V14.01,2013-06-26 06:46:00,
2013-06-26 02:51:00,70.3,69.4,29.90,WSW,242,0.0,3.0,97,0.00,,---,0.00,VWS V14.01,2013-06-26 06:51:00,
2013-06-26 02:56:00,70.3,69.1,29.90,WSW,242,0.0,3.0,96,0.00,,---,0.00,VWS V14.01,2013-06-26 06:56:00,
2013-06-26 03:00:00,70.8,69.3,29.91,WSW,242,0.0,0.0,95,0.00,,---,0.00,VWS V14.01,2013-06-26 07:00:00,
2013-06-26 03:01:00,70.3,69.4,29.90,WSW,242,0.0,0.0,97,0.00,,---,0.00,VWS V14.01,2013-06-26 07:01:00,
2013-06-26 03:06:00,70.3,69.4,29.90,WSW,242,0.0,0.0,97,0.00,,---,0.00,VWS V14.01,2013-06-26 07:06:00,
2013-06-26 03:11:00,70.2,69.3,29.90,WSW,246,0.0,0.0,97,0.00,,---,0.00,VWS V14.01,2013-06-26 07:11:00,
2013-06-26 03:16:00,70.2,69.3,29.90,WSW,246,0.0,0.0,97,0.00,,---,0.00,VWS V14.01,2013-06-26 07:16:00,
2013-06-26 03:21:00,70.2,69.3,29.90,WSW,246,0.0,0.0,97,0.00,,---,0.00,VWS V14.01,2013-06-26 07:21:00,
2013-06-26 03:26:00,70.1,69.2,29.90,WSW,246,0.0,0.0,97,0.00,,---,0.00,VWS V14.01,2013-06-26 07:26:00,
2013-06-26 03:30:00,70.3,68.8,29.91,WSW,242,0.0,0.0,95,0.00,,---,0.00,VWS V14.01,2013-06-26 07:30:00,
2013-06-26 03:31:00,70.1,69.2,29.91,WSW,246,0.0,0.0,97,0.00,,---,0.00,VWS V14.01,2013-06-26 07:31:00,
2013-06-26 03:36:00,70.0,69.1,29.91,WSW,246,0.0,0.0,97,0.00,,---,0.00,VWS V14.01,2013-06-26 07:36:00,
2013-06-26 03:41:00,69.9,69.0,29.91,WSW,246,0.0,0.0,97,0.00,,---,0.00,VWS V14.01,2013-06-26 07:41:00,
2013-06-26 03:46:00,69.9,69.0,29.90,WSW,246,0.0,0.0,97,0.00,,---,0.00,VWS V14.01,2013-06-26 07:46:00,
2013-06-26 03:51:00,69.9,69.0,29.90,WSW,246,0.0,0.0,97,0.00,,---,0.00,VWS V14.01,2013-06-26 07:51:00,
2013-06-26 03:56:00,69.8,68.9,29.90,WSW,246,0.0,0.0,97,0.00,,---,0.00,VWS V14.01,2013-06-26 07:56:00,
2013-06-26 04:00:00,70.3,69.4,29.90,WSW,242,0.0,3.0,97,0.00,,---,0.00,VWS V14.01,2013-06-26 08:00:00,
2013-06-26 04:01:00,69.7,68.8,29.90,WSW,246,0.0,0.0,97,0.00,,---,0.00,VWS V14.01,2013-06-26 08:01:00,
2013-06-26 04:06:00,69.7,68.8,29.90,WSW,246,0.0,0.0,97,0.00,,---,0.00,VWS V14.01,2013-06-26 08:06:00,
2013-06-26 04:11:00,69.6,68.7,29.90,WSW,246,0.0,0.0,97,0.00,,---,0.00,VWS V14.01,2013-06-26 08:11:00,
2013-06-26 04:16:00,69.5,68.3,29.90,WSW,246,0.0,0.0,96,0.00,,---,0.00,VWS V14.01,2013-06-26 08:16:00,
2013-06-26 04:21:00,69.4,68.2,29.90,WSW,246,0.0,0.0,96,0.00,,---,0.00,VWS V14.01,2013-06-26 08:21:00,
2013-06-26 04:26:00,69.4,68.2,29.90,WSW,246,0.0,0.0,96,0.00,,---,0.00,VWS V14.01,2013-06-26 08:26:00,
2013-06-26 04:30:00,70.0,69.1,29.91,WSW,246,0.0,0.0,97,0.00,,---,0.00,VWS V14.01,2013-06-26 08:30:00,
2013-06-26 04:31:00,69.4,68.2,29.90,WSW,246,0.0,0.0,96,0.00,,---,0.00,VWS V14.01,2013-06-26 08:31:00,
2013-06-26 04:36:00,69.3,68.4,29.90,WSW,246,0.0,0.0,97,0.00,,---,0.00,VWS V14.01,2013-06-26 08:36:00,
2013-06-26 04:41:00,69.3,68.4,29.90,WSW,246,0.0,0.0,97,0.00,,---,0.00,VWS V14.01,2013-06-26 08:41:00,
2013-06-26 04:46:00,69.2,68.3,29.90,WSW,246,0.0,0.0,97,0.00,,---,0.00,VWS V14.01,2013-06-26 08:46:00,
2013-06-26 04:51:00,69.2,68.3,29.90,WSW,246,0.0,1.0,97,0.00,,---,0.00,VWS V14.01,2013-06-26 08:51:00,
2013-06-26 04:56:00,69.2,68.3,29.90,WSW,246,0.0,1.0,97,0.00,,---,0.00,VWS V14.01,2013-06-26 08:56:00,
2013-06-26 05:00:00,69.7,68.8,29.90,WSW,246,0.0,0.0,97,0.00,,---,0.00,VWS V14.01,2013-06-26 09:00:00,
2013-06-26 05:01:00,69.2,68.3,29.90,WSW,246,0.0,0.0,97,0.00,,---,0.00,VWS V14.01,2013-06-26 09:01:00,
2013-06-26 05:06:00,69.2,68.3,29.90,WSW,246,0.0,1.0,97,0.00,,---,0.00,VWS V14.01,2013-06-26 09:06:00,
2013-06-26 05:11:00,69.2,68.3,29.90,WSW,246,0.0,1.0,97,0.00,,---,0.00,VWS V14.01,2013-06-26 09:11:00,
2013-06-26 05:16:00,69.3,68.4,29.90,WSW,246,0.0,1.0,97,0.00,,---,0.00,VWS V14.01,2013-06-26 09:16:00,
2013-06-26 05:21:00,69.2,68.3,29.90,WSW,246,0.0,1.0,97,0.00,,---,0.00,VWS V14.01,2013-06-26 09:21:00,
2013-06-26 05:26:00,69.2,68.3,29.90,WSW,246,0.0,1.0,97,0.00,,---,0.00,VWS V14.01,2013-06-26 09:26:00,
2013-06-26 05:30:00,69.4,68.2,29.90,WSW,246,0.0,0.0,96,0.00,,---,0.00,VWS V14.01,2013-06-26 09:30:00,
2013-06-26 05:31:00,69.2,68.3,29.90,WSW,246,0.0,0.0,97,0.00,,---,0.00,VWS V14.01,2013-06-26 09:31:00,
2013-06-26 05:36:00,69.2,68.3,29.89,WSW,246,0.0,0.0,97,0.00,,---,0.00,VWS V14.01,2013-06-26 09:36:00,
2013-06-26 05:41:00,69.1,68.2,29.89,WSW,246,0.0,0.0,97,0.00,,---,0.00,VWS V14.01,2013-06-26 09:41:00,
2013-06-26 05:46:00,69.1,68.2,29.90,WSW,246,0.0,0.0,97,0.00,,---,0.00,VWS V14.01,2013-06-26 09:46:00,
2013-06-26 05:51:00,69.0,68.1,29.90,WSW,246,0.0,0.0,97,0.00,,---,0.00,VWS V14.01,2013-06-26 09:51:00,
2013-06-26 05:56:00,69.0,68.1,29.90,WSW,246,0.0,0.0,97,0.00,,---,0.00,VWS V14.01,2013-06-26 09:56:00,
2013-06-26 06:00:00,69.2,68.3,29.90,WSW,246,0.0,1.0,97,0.00,,---,0.00,VWS V14.01,2013-06-26 10:00:00,
2013-06-26 06:01:00,69.0,68.1,29.91,WSW,246,0.0,0.0,97,0.00,,---,0.00,VWS V14.01,2013-06-26 10:01:00,
2013-06-26 06:06:00,69.0,68.1,29.91,WSW,246,0.0,0.0,97,0.00,,---,0.00,VWS V14.01,2013-06-26 10:06:00,
2013-06-26 06:11:00,69.0,68.1,29.91,WSW,246,0.0,1.0,97,0.00,,---,0.00,VWS V14.01,2013-06-26 10:11:00,
2013-06-26 06:16:00,68.9,68.0,29.91,WSW,246,0.0,1.0,97,0.00,,---,0.00,VWS V14.01,2013-06-26 10:16:00,
2013-06-26 06:21:00,68.9,68.0,29.92,SW,231,0.0,1.0,97,0.00,,---,0.00,VWS V14.01,2013-06-26 10:21:00,
2013-06-26 06:26:00,69.0,68.1,29.92,SW,231,0.0,1.0,97,0.00,,---,0.00,VWS V14.01,2013-06-26 10:26:00,
2013-06-26 06:30:00,69.2,68.3,29.90,WSW,246,0.0,1.0,97,0.00,,---,0.00,VWS V14.01,2013-06-26 10:30:00,
2013-06-26 06:31:00,69.0,68.1,29.92,SW,231,0.0,0.0,97,0.00,,---,0.00,VWS V14.01,2013-06-26 10:31:00,
2013-06-26 06:36:00,69.1,68.5,29.92,SW,231,0.0,2.0,98,0.00,,---,0.00,VWS V14.01,2013-06-26 10:36:00,
2013-06-26 06:41:00,69.3,68.7,29.92,SW,231,0.0,2.0,98,0.00,,---,0.00,VWS V14.01,2013-06-26 10:41:00,
2013-06-26 06:46:00,69.3,68.7,29.92,SW,231,0.0,2.0,98,0.00,,---,0.00,VWS V14.01,2013-06-26 10:46:00,
2013-06-26 06:51:00,69.4,68.8,29.92,SW,231,0.0,2.0,98,0.00,,---,0.00,VWS V14.01,2013-06-26 10:51:00,
2013-06-26 06:56:00,69.5,68.9,29.92,SW,231,2.0,2.0,98,0.00,,---,0.00,VWS V14.01,2013-06-26 10:56:00,
2013-06-26 07:00:00,69.0,68.1,29.91,WSW,246,0.0,0.0,97,0.00,,---,0.00,VWS V14.01,2013-06-26 11:00:00,
2013-06-26 07:01:00,69.7,69.1,29.92,West,270,2.0,4.0,98,0.00,,---,0.00,VWS V14.01,2013-06-26 11:01:00,
2013-06-26 07:06:00,69.8,69.2,29.92,WNW,296,1.0,6.0,98,0.00,,---,0.00,VWS V14.01,2013-06-26 11:06:00,
2013-06-26 07:11:00,69.9,69.3,29.92,WNW,286,1.0,6.0,98,0.00,,---,0.00,VWS V14.01,2013-06-26 11:11:00,
2013-06-26 07:16:00,70.1,69.5,29.92,NW,304,2.0,6.0,98,0.00,,---,0.00,VWS V14.01,2013-06-26 11:16:00,
2013-06-26 07:21:00,70.2,69.6,29.92,WNW,292,2.0,6.0,98,0.00,,---,0.00,VWS V14.01,2013-06-26 11:21:00,
2013-06-26 07:26:00,70.4,69.8,29.92,WNW,291,1.0,6.0,98,0.00,,---,0.00,VWS V14.01,2013-06-26 11:26:00,
2013-06-26 07:30:00,69.0,68.1,29.92,SW,231,0.0,1.0,97,0.00,,---,0.00,VWS V14.01,2013-06-26 11:30:00,
2013-06-26 07:31:00,70.5,69.9,29.93,West,277,4.0,4.0,98,0.00,,---,0.00,VWS V14.01,2013-06-26 11:31:00,
2013-06-26 07:36:00,70.7,70.1,29.92,West,280,2.0,4.0,98,0.00,,---,0.00,VWS V14.01,2013-06-26 11:36:00,
2013-06-26 07:41:00,70.9,70.3,29.92,West,274,2.0,4.0,98,0.00,,---,0.00,VWS V14.01,2013-06-26 11:41:00,
2013-06-26 07:46:00,71.1,70.5,29.92,West,263,3.0,4.0,98,0.00,,---,0.00,VWS V14.01,2013-06-26 11:46:00,
2013-06-26 07:51:00,71.4,70.5,29.93,WNW,282,1.0,5.0,97,0.00,,---,0.00,VWS V14.01,2013-06-26 11:51:00,
2013-06-26 07:56:00,71.7,70.8,29.93,WNW,282,0.0,5.0,97,0.00,,---,0.00,VWS V14.01,2013-06-26 11:56:00,
2013-06-26 08:00:00,69.7,69.1,29.92,West,270,4.0,4.0,98,0.00,,---,0.00,VWS V14.01,2013-06-26 12:00:00,
2013-06-26 08:01:00,72.0,70.8,29.93,West,275,0.0,1.0,96,0.00,,---,0.00,VWS V14.01,2013-06-26 12:01:00,
2013-06-26 08:06:00,72.3,71.1,29.92,West,265,0.0,5.0,96,0.00,,---,0.00,VWS V14.01,2013-06-26 12:06:00,
2013-06-26 08:11:00,72.6,71.1,29.93,West,280,1.0,5.0,95,0.00,,---,0.00,VWS V14.01,2013-06-26 12:11:00,
2013-06-26 08:16:00,72.8,71.3,29.93,WNW,283,2.0,5.0,95,0.00,,---,0.00,VWS V14.01,2013-06-26 12:16:00,
2013-06-26 08:21:00,73.0,71.5,29.93,West,259,0.0,5.0,95,0.00,,---,0.00,VWS V14.01,2013-06-26 12:21:00,
2013-06-26 08:26:00,73.2,71.4,29.93,West,259,1.0,5.0,94,0.00,,---,0.00,VWS V14.01,2013-06-26 12:26:00,
2013-06-26 08:30:00,70.5,69.9,29.93,WNW,285,3.0,6.0,98,0.00,,---,0.00,VWS V14.01,2013-06-26 12:30:00,
2013-06-26 08:31:00,73.3,71.5,29.93,WNW,294,1.0,1.0,94,0.00,,---,0.00,VWS V14.01,2013-06-26 12:31:00,
2013-06-26 08:36:00,73.4,71.6,29.93,WNW,293,1.0,2.0,94,0.00,,---,0.00,VWS V14.01,2013-06-26 12:36:00,
2013-06-26 08:41:00,73.6,71.8,29.93,West,260,2.0,5.0,94,0.00,,---,0.00,VWS V14.01,2013-06-26 12:41:00,
2013-06-26 08:46:00,73.8,72.0,29.93,West,260,1.0,5.0,94,0.00,,---,0.00,VWS V14.01,2013-06-26 12:46:00,
2013-06-26 08:51:00,73.9,71.8,29.93,West,261,4.0,5.0,93,0.00,,---,0.00,VWS V14.01,2013-06-26 12:51:00,
2013-06-26 08:56:00,74.1,71.9,29.93,West,259,2.0,5.0,93,0.00,,---,0.00,VWS V14.01,2013-06-26 12:56:00,
2013-06-26 09:00:00,72.0,70.8,29.93,West,275,0.0,5.0,96,0.00,,---,0.00,VWS V14.01,2013-06-26 13:00:00,
2013-06-26 09:01:00,74.3,72.2,29.92,West,266,4.0,4.0,93,0.00,,---,0.00,VWS V14.01,2013-06-26 13:01:00,
2013-06-26 09:06:00,74.5,72.0,29.92,West,277,2.0,4.0,92,0.00,,---,0.00,VWS V14.01,2013-06-26 13:06:00,
2013-06-26 09:11:00,74.8,72.3,29.92,West,267,2.0,7.0,92,0.00,,---,0.00,VWS V14.01,2013-06-26 13:11:00,
2013-06-26 09:16:00,74.9,72.1,29.92,West,267,1.0,8.0,91,0.00,,---,0.00,VWS V14.01,2013-06-26 13:16:00,
2013-06-26 09:21:00,75.1,72.3,29.92,West,270,2.0,8.0,91,0.00,,---,0.00,VWS V14.01,2013-06-26 13:21:00,
2013-06-26 09:26:00,75.2,72.4,29.92,WNW,282,6.0,8.0,91,0.00,,---,0.00,VWS V14.01,2013-06-26 13:26:00,
2013-06-26 09:30:00,73.3,71.5,29.93,WNW,294,1.0,5.0,94,0.00,,---,0.00,VWS V14.01,2013-06-26 13:30:00,
2013-06-26 09:31:00,75.3,72.5,29.92,West,281,4.0,4.0,91,0.00,,---,0.00,VWS V14.01,2013-06-26 13:31:00,
2013-06-26 09:36:00,75.4,72.6,29.92,WNW,302,0.0,5.0,91,0.00,,---,0.00,VWS V14.01,2013-06-26 13:36:00,
2013-06-26 09:41:00,75.6,72.8,29.91,WNW,287,1.0,5.0,91,0.00,,---,0.00,VWS V14.01,2013-06-26 13:41:00,
2013-06-26 09:46:00,75.8,72.7,29.91,WNW,289,1.0,5.0,90,0.00,,---,0.00,VWS V14.01,2013-06-26 13:46:00,
2013-06-26 09:51:00,76.1,73.3,29.91,WNW,283,1.0,5.0,91,0.00,,---,0.00,VWS V14.01,2013-06-26 13:51:00,
2013-06-26 09:56:00,76.3,73.2,29.91,West,260,0.0,5.0,90,0.00,,---,0.00,VWS V14.01,2013-06-26 13:56:00,
2013-06-26 10:00:00,74.3,72.2,29.93,West,261,1.0,5.0,93,0.00,,---,0.00,VWS V14.01,2013-06-26 14:00:00,
2013-06-26 10:01:00,76.7,73.6,29.91,West,271,0.0,1.0,90,0.00,,---,0.00,VWS V14.01,2013-06-26 14:01:00,
2013-06-26 10:06:00,77.0,73.5,29.91,West,265,0.0,5.0,89,0.00,,---,0.00,VWS V14.01,2013-06-26 14:06:00,
2013-06-26 10:11:00,77.2,73.4,29.91,West,263,6.0,6.0,88,0.00,,---,0.00,VWS V14.01,2013-06-26 14:11:00,
2013-06-26 10:16:00,77.4,73.6,29.91,WNW,285,1.0,6.0,88,0.00,,---,0.00,VWS V14.01,2013-06-26 14:16:00,
2013-06-26 10:21:00,77.6,73.8,29.91,WNW,293,2.0,6.0,88,0.00,,---,0.00,VWS V14.01,2013-06-26 14:21:00,
2013-06-26 10:26:00,78.0,74.2,29.91,WNW,284,2.0,6.0,88,0.00,,---,0.00,VWS V14.01,2013-06-26 14:26:00,
2013-06-26 10:30:00,75.3,72.5,29.92,West,281,2.0,8.0,91,0.00,,---,0.00,VWS V14.01,2013-06-26 14:30:00,
2013-06-26 10:31:00,78.5,74.3,29.90,NNE,13,0.0,1.0,87,0.00,,---,0.00,VWS V14.01,2013-06-26 14:31:00,
2013-06-26 10:36:00,78.7,73.8,29.90,West,263,2.0,6.0,85,0.00,,---,0.00,VWS V14.01,2013-06-26 14:36:00,
2013-06-26 10:41:00,78.8,73.9,29.90,West,271,4.0,7.0,85,0.00,,---,0.00,VWS V14.01,2013-06-26 14:41:00,
2013-06-26 10:46:00,78.9,74.4,29.90,West,280,0.0,7.0,86,0.00,,---,0.00,VWS V14.01,2013-06-26 14:46:00,
2013-06-26 10:51:00,79.2,74.3,29.89,WNW,285,2.0,7.0,85,0.00,,---,0.00,VWS V14.01,2013-06-26 14:51:00,
2013-06-26 10:56:00,79.7,74.8,29.90,West,276,3.0,9.0,85,0.00,,---,0.00,VWS V14.01,2013-06-26 14:56:00,
2013-06-26 11:00:00,76.6,73.4,29.91,West,271,1.0,5.0,90,0.00,,---,0.00,VWS V14.01,2013-06-26 15:00:00,
2013-06-26 11:01:00,80.2,74.9,29.89,West,279,5.0,5.0,84,0.00,,---,0.00,VWS V14.01,2013-06-26 15:01:00,
2013-06-26 11:06:00,80.8,75.2,29.89,West,281,1.0,6.0,83,0.00,,---,0.00,VWS V14.01,2013-06-26 15:06:00,
2013-06-26 11:11:00,81.1,75.1,29.89,West,263,4.0,6.0,82,0.00,,---,0.00,VWS V14.01,2013-06-26 15:11:00,
2013-06-26 11:16:00,81.3,75.3,29.89,West,272,3.0,7.0,82,0.00,,---,0.00,VWS V14.01,2013-06-26 15:16:00,
2013-06-26 11:21:00,81.5,75.5,29.89,WNW,284,3.0,7.0,82,0.00,,---,0.00,VWS V14.01,2013-06-26 15:21:00,
2013-06-26 11:26:00,81.8,76.1,29.89,WNW,289,3.0,7.0,83,0.00,,---,0.00,VWS V14.01,2013-06-26 15:26:00,
2013-06-26 11:30:00,78.4,74.2,29.91,West,267,1.0,7.0,87,0.00,,---,0.00,VWS V14.01,2013-06-26 15:30:00,
2013-06-26 11:31:00,82.2,76.2,29.89,WSW,253,3.0,3.0,82,0.00,,---,0.00,VWS V14.01,2013-06-26 15:31:00,
2013-06-26 11:36:00,82.7,77.0,29.89,WNW,282,4.0,5.0,83,0.00,,---,0.00,VWS V14.01,2013-06-26 15:36:00,
2013-06-26 11:41:00,82.9,76.5,29.89,WNW,284,3.0,8.0,81,0.00,,---,0.00,VWS V14.01,2013-06-26 15:41:00,
2013-06-26 11:46:00,83.3,76.9,29.89,West,263,0.0,8.0,81,0.00,,---,0.00,VWS V14.01,2013-06-26 15:46:00,
2013-06-26 11:51:00,83.6,76.4,29.89,West,281,2.0,8.0,79,0.00,,---,0.00,VWS V14.01,2013-06-26 15:51:00,
2013-06-26 11:56:00,83.7,76.9,29.89,NW,304,1.0,8.0,80,0.00,,---,0.00,VWS V14.01,2013-06-26 15:56:00,
2013-06-26 12:00:00,80.2,74.9,29.90,West,276,1.0,9.0,84,0.00,,---,0.00,VWS V14.01,2013-06-26 16:00:00,
2013-06-26 12:01:00,84.1,76.9,29.89,West,281,3.0,3.0,79,0.00,,---,0.00,VWS V14.01,2013-06-26 16:01:00,
2013-06-26 12:06:00,84.5,76.9,29.89,West,281,1.0,3.0,78,0.00,,---,0.00,VWS V14.01,2013-06-26 16:06:00,
2013-06-26 12:11:00,84.6,76.6,29.89,West,273,3.0,6.0,77,0.00,,---,0.00,VWS V14.01,2013-06-26 16:11:00,
2013-06-26 12:16:00,84.8,76.4,29.89,West,281,3.0,6.0,76,0.00,,---,0.00,VWS V14.01,2013-06-26 16:16:00,
2013-06-26 12:21:00,84.9,76.5,29.89,West,267,0.0,7.0,76,0.00,,---,0.00,VWS V14.01,2013-06-26 16:21:00,
2013-06-26 12:26:00,85.2,76.8,29.89,West,273,4.0,7.0,76,0.00,,---,0.00,VWS V14.01,2013-06-26 16:26:00,
2013-06-26 12:30:00,82.2,76.2,29.89,WSW,247,2.0,7.0,82,0.00,,---,0.00,VWS V14.01,2013-06-26 16:30:00,
2013-06-26 12:31:00,85.5,77.5,29.89,West,268,0.0,3.0,77,0.00,,---,0.00,VWS V14.01,2013-06-26 16:31:00,
2013-06-26 12:36:00,85.9,77.1,29.89,WSW,252,1.0,6.0,75,0.00,,---,0.00,VWS V14.01,2013-06-26 16:36:00,
2013-06-26 12:41:00,86.3,77.4,29.89,NW,315,1.0,6.0,75,0.00,,---,0.00,VWS V14.01,2013-06-26 16:41:00,
2013-06-26 12:46:00,86.5,77.2,29.89,NW,304,1.0,6.0,74,0.00,,---,0.00,VWS V14.01,2013-06-26 16:46:00,
2013-06-26 12:51:00,86.7,77.8,29.89,WNW,285,1.0,6.0,75,0.00,,---,0.00,VWS V14.01,2013-06-26 16:51:00,
2013-06-26 12:56:00,86.7,77.4,29.89,West,274,2.0,9.0,74,0.00,,---,0.00,VWS V14.01,2013-06-26 16:56:00,
2013-06-26 13:00:00,84.1,76.9,29.89,WNW,292,3.0,8.0,79,0.00,,---,0.00,VWS V14.01,2013-06-26 17:00:00,
2013-06-26 13:01:00,86.9,77.6,29.89,West,273,4.0,4.0,74,0.00,,---,0.00,VWS V14.01,2013-06-26 17:01:00,
2013-06-26 13:06:00,87.0,76.5,29.89,West,264,3.0,9.0,71,0.00,,---,0.00,VWS V14.01,2013-06-26 17:06:00,
2013-06-26 13:11:00,87.3,77.6,29.89,WNW,296,2.0,9.0,73,0.00,,---,0.00,VWS V14.01,2013-06-26 17:11:00,
2013-06-26 13:16:00,87.5,77.8,29.88,West,277,2.0,9.0,73,0.00,,---,0.00,VWS V14.01,2013-06-26 17:16:00,
2013-06-26 13:21:00,87.8,77.2,29.88,West,277,0.0,9.0,71,0.00,,---,0.00,VWS V14.01,2013-06-26 17:21:00,
2013-06-26 13:26:00,87.8,77.2,29.88,West,277,0.0,9.0,71,0.00,,---,0.00,VWS V14.01,2013-06-26 17:26:00,
2013-06-26 13:30:00,85.5,77.5,29.89,West,268,3.0,7.0,77,0.00,,---,0.00,VWS V14.01,2013-06-26 17:30:00,
2013-06-26 13:31:00,87.9,78.2,29.88,NW,307,0.0,1.0,73,0.00,,---,0.00,VWS V14.01,2013-06-26 17:31:00,
2013-06-26 13:36:00,88.2,76.8,29.88,West,273,0.0,5.0,69,0.00,,---,0.00,VWS V14.01,2013-06-26 17:36:00,
2013-06-26 13:41:00,88.3,76.0,29.88,WSW,255,0.0,5.0,67,0.00,,---,0.00,VWS V14.01,2013-06-26 17:41:00,
2013-06-26 13:46:00,88.6,76.7,29.87,West,279,0.0,5.0,68,0.00,,---,0.00,VWS V14.01,2013-06-26 17:46:00,
2013-06-26 13:51:00,88.9,77.8,29.87,West,279,1.0,5.0,70,0.00,,---,0.00,VWS V14.01,2013-06-26 17:51:00,
2013-06-26 13:56:00,89.2,77.3,29.87,West,279,0.0,5.0,68,0.00,,---,0.00,VWS V14.01,2013-06-26 17:56:00,
2013-06-26 14:00:00,86.8,77.5,29.89,West,268,2.0,9.0,74,0.00,,---,0.00,VWS V14.01,2013-06-26 18:00:00,
2013-06-26 14:01:00,89.2,77.7,29.87,West,279,0.0,0.0,69,0.00,,---,0.00,VWS V14.01,2013-06-26 18:01:00,
2013-06-26 14:06:00,89.2,78.6,29.86,West,279,0.0,2.0,71,0.00,,---,0.00,VWS V14.01,2013-06-26 18:06:00,
2013-06-26 14:11:00,89.4,77.9,29.86,WSW,257,2.0,4.0,69,0.00,,---,0.00,VWS V14.01,2013-06-26 18:11:00,
2013-06-26 14:16:00,89.6,78.1,29.85,West,279,0.0,4.0,69,0.00,,---,0.00,VWS V14.01,2013-06-26 18:16:00,
2013-06-26 14:21:00,89.9,78.4,29.85,West,279,0.0,4.0,69,0.00,,---,0.00,VWS V14.01,2013-06-26 18:21:00,
2013-06-26 14:26:00,89.9,77.5,29.84,West,279,0.0,4.0,67,0.00,,---,0.00,VWS V14.01,2013-06-26 18:26:00,
2013-06-26 14:30:00,87.9,78.2,29.88,NW,307,1.0,9.0,73,0.00,,---,0.00,VWS V14.01,2013-06-26 18:30:00,
2013-06-26 14:31:00,90.1,79.0,29.84,WNW,285,2.0,3.0,70,0.00,,---,0.00,VWS V14.01,2013-06-26 18:31:00,
2013-06-26 14:36:00,90.2,77.3,29.84,WNW,290,0.0,3.0,66,0.00,,---,0.00,VWS V14.01,2013-06-26 18:36:00,
2013-06-26 14:41:00,90.1,76.8,29.84,WNW,290,0.0,3.0,65,0.00,,---,0.00,VWS V14.01,2013-06-26 18:41:00,
2013-06-26 14:46:00,89.9,77.0,29.84,WNW,290,0.0,3.0,66,0.00,,---,0.00,VWS V14.01,2013-06-26 18:46:00,
2013-06-26 14:51:00,89.4,77.4,29.83,WNW,290,0.0,3.0,68,0.00,,---,0.00,VWS V14.01,2013-06-26 18:51:00,
2013-06-26 14:56:00,88.9,77.4,29.83,WNW,290,0.0,3.0,69,0.00,,---,0.00,VWS V14.01,2013-06-26 18:56:00,
2013-06-26 15:00:00,89.2,77.7,29.87,West,279,0.0,5.0,69,0.00,,---,0.00,VWS V14.01,2013-06-26 19:00:00,
2013-06-26 15:01:00,88.5,78.3,29.84,WNW,290,0.0,0.0,72,0.00,,---,0.00,VWS V14.01,2013-06-26 19:01:00,
2013-06-26 15:06:00,88.1,77.5,29.83,West,271,0.0,5.0,71,0.00,,---,0.00,VWS V14.01,2013-06-26 19:06:00,
2013-06-26 15:11:00,87.9,76.9,29.84,WNW,289,2.0,6.0,70,0.00,,---,0.00,VWS V14.01,2013-06-26 19:11:00,
2013-06-26 15:16:00,87.7,76.7,29.83,WNW,299,0.0,6.0,70,0.00,,---,0.00,VWS V14.01,2013-06-26 19:16:00,
2013-06-26 15:21:00,87.9,77.8,29.83,WNW,299,0.0,6.0,72,0.00,,---,0.00,VWS V14.01,2013-06-26 19:21:00,
2013-06-26 15:26:00,88.0,78.3,29.83,WNW,300,2.0,6.0,73,0.00,,---,0.00,VWS V14.01,2013-06-26 19:26:00,
2013-06-26 15:30:00,90.0,78.9,29.84,WNW,284,1.0,4.0,70,0.00,,---,0.00,VWS V14.01,2013-06-26 19:30:00,
2013-06-26 15:31:00,87.9,77.3,29.83,West,276,2.0,4.0,71,0.00,,---,0.00,VWS V14.01,2013-06-26 19:31:00,
2013-06-26 15:36:00,87.7,78.0,29.83,WNW,286,0.0,4.0,73,0.00,,---,0.00,VWS V14.01,2013-06-26 19:36:00,
2013-06-26 15:41:00,87.5,78.2,29.83,WNW,286,0.0,4.0,74,0.00,,---,0.00,VWS V14.01,2013-06-26 19:41:00,
2013-06-26 15:46:00,87.4,78.1,29.82,WNW,290,0.0,4.0,74,0.00,,---,0.00,VWS V14.01,2013-06-26 19:46:00,
2013-06-26 15:51:00,87.4,78.9,29.82,WNW,290,0.0,4.0,76,0.00,,---,0.00,VWS V14.01,2013-06-26 19:51:00,
2013-06-26 15:56:00,87.2,77.9,29.82,West,281,0.0,5.0,74,0.00,,---,0.00,VWS V14.01,2013-06-26 19:56:00,
2013-06-26 16:00:00,88.5,78.3,29.84,WNW,290,0.0,3.0,72,0.00,,---,0.00,VWS V14.01,2013-06-26 20:00:00,
2013-06-26 16:01:00,87.2,78.3,29.82,WNW,288,1.0,5.0,75,0.00,,---,0.00,VWS V14.01,2013-06-26 20:01:00,
2013-06-26 16:06:00,87.1,78.2,29.82,WNW,299,2.0,5.0,75,0.00,,---,0.00,VWS V14.01,2013-06-26 20:06:00,
2013-06-26 16:11:00,87.1,78.6,29.82,WSW,258,1.0,5.0,76,0.00,,---,0.00,VWS V14.01,2013-06-26 20:11:00,
2013-06-26 16:16:00,87.3,78.8,29.82,West,268,1.0,5.0,76,0.00,,---,0.00,VWS V14.01,2013-06-26 20:16:00,
2013-06-26 16:21:00,87.5,79.0,29.81,West,275,1.0,5.0,76,0.00,,---,0.00,VWS V14.01,2013-06-26 20:21:00,
2013-06-26 16:26:00,87.6,78.3,29.81,WNW,282,1.0,5.0,74,0.00,,---,0.00,VWS V14.01,2013-06-26 20:26:00,
2013-06-26 16:30:00,87.9,77.3,29.83,West,276,4.0,6.0,71,0.00,,---,0.00,VWS V14.01,2013-06-26 20:30:00,
2013-06-26 16:31:00,87.3,77.6,29.81,NW,304,2.0,3.0,73,0.00,,---,0.00,VWS V14.01,2013-06-26 20:31:00,
2013-06-26 16:36:00,87.0,77.3,29.81,WNW,303,2.0,6.0,73,0.00,,---,0.00,VWS V14.01,2013-06-26 20:36:00,
2013-06-26 16:41:00,86.8,77.1,29.81,WNW,293,0.0,7.0,73,0.00,,---,0.00,VWS V14.01,2013-06-26 20:41:00,
2013-06-26 16:46:00,86.6,76.9,29.81,WNW,290,2.0,7.0,73,0.00,,---,0.00,VWS V14.01,2013-06-26 20:46:00,
2013-06-26 16:51:00,86.5,76.8,29.81,WNW,290,2.0,7.0,73,0.00,,---,0.00,VWS V14.01,2013-06-26 20:51:00,
2013-06-26 16:56:00,86.6,77.7,29.81,WNW,294,0.0,7.0,75,0.00,,---,0.00,VWS V14.01,2013-06-26 20:56:00,
2013-06-26 17:00:00,87.2,78.3,29.82,West,281,5.0,5.0,75,0.00,,---,0.00,VWS V14.01,2013-06-26 21:00:00,
2013-06-26 17:01:00,86.8,77.5,29.81,WNW,292,0.0,0.0,74,0.00,,---,0.00,VWS V14.01,2013-06-26 21:01:00,
2013-06-26 17:06:00,87.1,78.6,29.81,NNW,340,1.0,2.0,76,0.00,,---,0.00,VWS V14.01,2013-06-26 21:06:00,
2013-06-26 17:10:00,87.2,78.3,29.81,North,355,0.0,3.0,75,0.00,,---,0.00,VWS V14.01,2013-06-26 21:10:00,
2013-06-26 17:15:00,87.2,78.7,29.82,North,355,0.0,3.0,76,0.00,,---,0.00,VWS V14.01,2013-06-26 21:15:00,
2013-06-26 17:20:00,87.3,77.6,29.83,NNW,340,0.0,4.0,73,0.00,,---,0.00,VWS V14.01,2013-06-26 21:20:00,
2013-06-26 17:25:00,87.3,78.0,29.83,NE,42,0.0,4.0,74,0.00,,---,0.00,VWS V14.01,2013-06-26 21:25:00,
2013-06-26 17:30:00,87.2,77.5,29.83,WNW,302,1.0,1.0,73,0.00,,---,0.00,VWS V14.01,2013-06-26 21:30:00,
2013-06-26 17:35:00,87.2,77.9,29.83,WNW,298,0.0,4.0,74,0.00,,---,0.00,VWS V14.01,2013-06-26 21:35:00,
2013-06-26 17:40:00,87.1,77.8,29.82,WNW,292,1.0,4.0,74,0.00,,---,0.00,VWS V14.01,2013-06-26 21:40:00,
2013-06-26 17:45:00,87.0,77.7,29.83,NW,307,1.0,6.0,74,0.00,,---,0.00,VWS V14.01,2013-06-26 21:45:00,
2013-06-26 17:50:00,86.8,77.5,29.83,NW,314,1.0,6.0,74,0.00,,---,0.00,VWS V14.01,2013-06-26 21:50:00,
2013-06-26 17:55:00,86.6,77.7,29.83,NW,314,0.0,6.0,75,0.00,,---,0.00,VWS V14.01,2013-06-26 21:55:00,
2013-06-26 18:00:00,86.4,77.5,29.82,NW,317,0.0,6.0,75,0.00,,---,0.00,VWS V14.01,2013-06-26 22:00:00,
2013-06-26 18:05:00,86.3,77.8,29.82,North,360,3.0,3.0,76,0.00,,---,0.00,VWS V14.01,2013-06-26 22:05:00,
2013-06-26 18:10:00,86.2,78.2,29.82,NNE,15,0.0,4.0,77,0.00,,---,0.00,VWS V14.01,2013-06-26 22:10:00,
2013-06-26 18:15:00,86.1,77.7,29.82,NNE,15,0.0,4.0,76,0.00,,---,0.00,VWS V14.01,2013-06-26 22:15:00,
2013-06-26 18:20:00,85.9,77.5,29.82,West,277,0.0,4.0,76,0.00,,---,0.00,VWS V14.01,2013-06-26 22:20:00,
2013-06-26 18:25:00,85.7,77.3,29.83,WNW,290,0.0,4.0,76,0.00,,---,0.00,VWS V14.01,2013-06-26 22:25:00,
2013-06-26 18:30:00,85.6,78.0,29.83,WNW,290,0.0,0.0,78,0.00,,---,0.00,VWS V14.01,2013-06-26 22:30:00,
2013-06-26 18:35:00,85.4,77.4,29.83,WNW,290,0.0,1.0,77,0.00,,---,0.00,VWS V14.01,2013-06-26 22:35:00,
2013-06-26 18:40:00,85.1,77.9,29.83,WNW,290,0.0,2.0,79,0.00,,---,0.00,VWS V14.01,2013-06-26 22:40:00,
2013-06-26 18:45:00,85.0,77.8,29.84,WNW,290,0.0,2.0,79,0.00,,---,0.00,VWS V14.01,2013-06-26 22:45:00,
2013-06-26 18:50:00,84.7,78.2,29.86,WNW,294,1.0,3.0,81,0.00,,---,0.00,VWS V14.01,2013-06-26 22:50:00,
2013-06-26 18:55:00,83.3,72.1,29.88,SW,218,2.0,6.0,69,0.00,,---,0.00,VWS V14.01,2013-06-26 22:55:00,
2013-06-26 19:00:00,81.9,70.7,29.88,SE,145,1.0,6.0,69,0.00,,---,0.00,VWS V14.01,2013-06-26 23:00:00,
2013-06-26 19:05:00,80.7,69.6,29.89,SSW,197,1.0,5.0,69,0.00,,---,0.00,VWS V14.01,2013-06-26 23:05:00,
2013-06-26 19:10:00,79.5,69.7,29.89,West,262,1.0,5.0,72,0.00,,---,0.00,VWS V14.01,2013-06-26 23:10:00,
2013-06-26 19:15:00,78.4,70.6,29.89,South,185,2.0,5.0,77,0.07,,---,0.07,VWS V14.01,2013-06-26 23:15:00,
2013-06-26 19:20:00,76.7,70.1,29.88,WSW,238,0.0,6.0,80,0.18,,---,0.18,VWS V14.01,2013-06-26 23:20:00,
2013-06-26 19:25:00,75.1,69.9,29.88,South,183,0.0,6.0,84,0.24,,---,0.24,VWS V14.01,2013-06-26 23:25:00,
2013-06-26 19:30:00,73.9,69.4,29.88,SSE,159,0.0,6.0,86,0.27,,---,0.27,VWS V14.01,2013-06-26 23:30:00,
2013-06-26 19:35:00,73.0,69.2,29.87,SSE,157,0.0,2.0,88,0.27,,---,0.27,VWS V14.01,2013-06-26 23:35:00,
2013-06-26 19:40:00,72.6,69.5,29.87,SSE,157,0.0,2.0,90,0.29,,---,0.29,VWS V14.01,2013-06-26 23:40:00,
2013-06-26 19:45:00,72.1,69.3,29.86,SSE,157,0.0,2.0,91,0.31,,---,0.31,VWS V14.01,2013-06-26 23:45:00,
2013-06-26 19:50:00,71.8,69.3,29.86,SSE,157,0.0,2.0,92,0.31,,---,0.31,VWS V14.01,2013-06-26 23:50:00,
2013-06-26 19:55:00,71.5,69.4,29.85,SSE,157,0.0,2.0,93,0.31,,---,0.31,VWS V14.01,2013-06-26 23:55:00,
2013-06-26 20:00:00,71.2,69.1,29.85,SSE,157,0.0,2.0,93,0.31,,---,0.31,VWS V14.01,2013-06-27 00:00:00,
2013-06-26 20:05:00,71.1,69.3,29.86,SSE,157,0.0,1.0,94,0.31,,---,0.31,VWS V14.01,2013-06-27 00:05:00,
2013-06-26 20:10:00,71.0,69.5,29.87,SSE,157,0.0,1.0,95,0.31,,---,0.31,VWS V14.01,2013-06-27 00:10:00,
2013-06-26 20:15:00,71.0,69.5,29.87,SSE,157,0.0,1.0,95,0.32,,---,0.32,VWS V14.01,2013-06-27 00:15:00,
2013-06-26 20:20:00,70.9,69.4,29.86,SSE,157,0.0,1.0,95,0.32,,---,0.32,VWS V14.01,2013-06-27 00:20:00,
2013-06-26 20:25:00,70.9,69.4,29.86,SSE,157,0.0,1.0,95,0.32,,---,0.32,VWS V14.01,2013-06-27 00:25:00,
2013-06-26 20:30:00,70.8,69.3,29.85,SSE,157,0.0,1.0,95,0.32,,---,0.32,VWS V14.01,2013-06-27 00:30:00,
2013-06-26 20:35:00,70.8,69.3,29.85,SSE,157,0.0,0.0,95,0.05,,---,0.32,VWS V14.01,2013-06-27 00:35:00,
2013-06-26 20:40:00,70.8,69.3,29.85,SSE,157,0.0,0.0,95,0.05,,---,0.32,VWS V14.01,2013-06-27 00:40:00,
2013-06-26 20:45:00,70.7,69.5,29.85,SSE,157,0.0,0.0,96,0.05,,---,0.32,VWS V14.01,2013-06-27 00:45:00,
2013-06-26 20:50:00,70.7,69.5,29.85,WSW,254,2.0,3.0,96,0.05,,---,0.32,VWS V14.01,2013-06-27 00:50:00,
2013-06-26 20:55:00,70.6,69.4,29.87,West,277,2.0,8.0,96,0.05,,---,0.32,VWS V14.01,2013-06-27 00:55:00,
2013-06-26 21:00:00,70.4,69.2,29.87,West,273,4.0,8.0,96,0.05,,---,0.32,VWS V14.01,2013-06-27 01:00:00,
2013-06-26 21:05:00,70.3,69.1,29.87,West,275,2.0,4.0,96,0.01,,---,0.32,VWS V14.01,2013-06-27 01:05:00,
2013-06-26 21:10:00,70.2,69.0,29.87,WNW,287,0.0,4.0,96,0.01,,---,0.32,VWS V14.01,2013-06-27 01:10:00,
2013-06-26 21:15:00,70.1,68.9,29.88,WNW,286,0.0,4.0,96,0.01,,---,0.32,VWS V14.01,2013-06-27 01:15:00,
2013-06-26 21:20:00,70.1,68.9,29.89,WNW,286,2.0,4.0,96,0.01,,---,0.32,VWS V14.01,2013-06-27 01:20:00,
2013-06-26 21:25:00,70.0,68.8,29.89,West,276,0.0,4.0,96,0.01,,---,0.32,VWS V14.01,2013-06-27 01:25:00,
2013-06-26 21:30:00,69.9,68.7,29.89,WNW,287,1.0,4.0,96,0.01,,---,0.32,VWS V14.01,2013-06-27 01:30:00,
2013-06-26 21:35:00,69.9,69.0,29.89,WNW,287,0.0,0.0,97,0.00,,---,0.32,VWS V14.01,2013-06-27 01:35:00,
2013-06-26 21:40:00,69.9,69.0,29.88,WNW,287,0.0,2.0,97,0.00,,---,0.32,VWS V14.01,2013-06-27 01:40:00,
2013-06-26 21:45:00,69.8,68.9,29.87,WNW,287,0.0,2.0,97,0.00,,---,0.32,VWS V14.01,2013-06-27 01:45:00,
2013-06-26 21:50:00,69.8,68.9,29.87,WNW,287,0.0,2.0,97,0.00,,---,0.32,VWS V14.01,2013-06-27 01:50:00,
2013-06-26 21:55:00,69.8,68.9,29.87,WNW,287,0.0,2.0,97,0.00,,---,0.32,VWS V14.01,2013-06-27 01:55:00,
2013-06-26 22:00:00,69.7,68.8,29.87,WNW,287,0.0,2.0,97,0.00,,---,0.32,VWS V14.01,2013-06-27 02:00:00,
2013-06-26 22:05:00,69.8,68.9,29.87,WNW,287,0.0,2.0,97,0.00,,---,0.32,VWS V14.01,2013-06-27 02:05:00,
2013-06-26 22:10:00,69.8,68.9,29.86,WNW,287,0.0,2.0,97,0.00,,---,0.32,VWS V14.01,2013-06-27 02:10:00,
2013-06-26 22:15:00,69.7,68.8,29.86,WNW,287,1.0,2.0,97,0.00,,---,0.32,VWS V14.01,2013-06-27 02:15:00,
2013-06-26 22:20:00,69.7,68.8,29.86,WNW,287,0.0,2.0,97,0.00,,---,0.32,VWS V14.01,2013-06-27 02:20:00,
2013-06-26 22:25:00,69.8,68.9,29.86,NW,304,0.0,3.0,97,0.00,,---,0.32,VWS V14.01,2013-06-27 02:25:00,
2013-06-26 22:30:00,69.7,68.8,29.86,WNW,296,3.0,4.0,97,0.00,,---,0.32,VWS V14.01,2013-06-27 02:30:00,
2013-06-26 22:35:00,69.7,68.8,29.87,WNW,292,3.0,3.0,97,0.00,,---,0.32,VWS V14.01,2013-06-27 02:35:00,
2013-06-26 22:40:00,69.7,68.8,29.87,WNW,292,0.0,3.0,97,0.00,,---,0.32,VWS V14.01,2013-06-27 02:40:00,
2013-06-26 22:45:00,69.7,68.8,29.88,WNW,292,0.0,3.0,97,0.00,,---,0.32,VWS V14.01,2013-06-27 02:45:00,
2013-06-26 22:50:00,69.6,68.7,29.88,West,281,1.0,6.0,97,0.00,,---,0.32,VWS V14.01,2013-06-27 02:50:00,
2013-06-26 22:55:00,69.5,68.6,29.88,West,281,0.0,6.0,97,0.00,,---,0.32,VWS V14.01,2013-06-27 02:55:00,
2013-06-26 23:00:00,69.5,68.6,29.88,West,281,0.0,6.0,97,0.00,,---,0.32,VWS V14.01,2013-06-27 03:00:00,
2013-06-26 23:05:00,69.5,68.6,29.87,West,281,0.0,0.0,97,0.00,,---,0.32,VWS V14.01,2013-06-27 03:05:00,
2013-06-26 23:10:00,69.5,68.6,29.86,West,281,0.0,1.0,97,0.00,,---,0.32,VWS V14.01,2013-06-27 03:10:00,
2013-06-26 23:15:00,69.5,68.6,29.85,West,281,0.0,1.0,97,0.00,,---,0.32,VWS V14.01,2013-06-27 03:15:00,
2013-06-26 23:20:00,69.4,68.5,29.85,West,281,0.0,1.0,97,0.00,,---,0.32,VWS V14.01,2013-06-27 03:20:00,
2013-06-26 23:25:00,69.4,68.5,29.84,West,281,0.0,1.0,97,0.00,,---,0.32,VWS V14.01,2013-06-27 03:25:00,
2013-06-26 23:30:00,69.4,68.5,29.84,West,281,0.0,1.0,97,0.00,,---,0.32,VWS V14.01,2013-06-27 03:30:00,
2013-06-26 23:35:00,69.3,68.4,29.84,West,281,0.0,0.0,97,0.00,,---,0.32,VWS V14.01,2013-06-27 03:35:00,
2013-06-26 23:40:00,69.3,68.4,29.84,West,281,0.0,0.0,97,0.00,,---,0.32,VWS V14.01,2013-06-27 03:40:00,
2013-06-26 23:45:00,69.2,68.3,29.85,West,281,2.0,3.0,97,0.00,,---,0.32,VWS V14.01,2013-06-27 03:45:00,
2013-06-26 23:50:00,69.1,68.2,29.85,West,281,0.0,3.0,97,0.00,,---,0.32,VWS V14.01,2013-06-27 03:50:00,
2013-06-26 23:55:00,69.1,68.2,29.84,West,281,0.0,3.0,97,0.00,,---,0.32,VWS V14.01,2013-06-27 03:55:00,